Location: Leiter
(44.7178°N, 106.2687°W)
Time: 22:32:39
(UTC+00:00)

DX 1 - Pass Details

Date: 08 July 2022
Orbit: 616 x 630 km, 98.4° (Epoch: 18 August)

Event Time Altitude Azimuth Distance (km) Brightness Sun altitude
Rises 05:19:00 0° 2° (N) 2,928 ? -18.2°
Reaches altitude 10° 05:21:29 10° 349° (N) 2,014 ? -18.4°
Maximum altitude 05:25:04 25° 295° (WNW) 1,265 ? -18.7°
Drops below altitude 10° 05:28:37 10° 239° (WSW) 1,996 ? -18.9°
Enters shadow 05:30:36 - 228° (SW) 2,714 ? -19.1°
